Overview Statistics Trail Chart Weather Telemetry Raw packets
 

This is the latest recevied weather packets stored in our database for station/object S51UL-6. If no packets are shown the sender has not sent any weather packets the latest 10 day(s).

<< 7 8 9 10 11 12 13 >>
Time Temp. Humidity Pressure Rain* Wind** Luminosity Snow
1788607833 26.11° C 49% 1020.8 hPa 16 mm - - -
1788607532 26.11° C 49% 1021 hPa 14.99 mm - - -
1788607233 26.67° C 48% 1020.9 hPa 14.99 mm - - -
1788606932 27.22° C 48% 1021 hPa 10.41 mm - - -
1788606632 26.67° C 51% 1020.9 hPa 9.4 mm - - -
1788606032 26.11° C 50% 1020.8 hPa 8.89 mm - - -
1788605732 26.11° C 50% 1021 hPa 8.89 mm - - -
1788605133 26.67° C 49% 1020.9 hPa 7.62 mm - - -
1788604833 26.67° C 49% 1020.9 hPa 7.62 mm - - -
1788604536 26.67° C 48% 1020.8 hPa 6.6 mm - - -
1788604232 27.22° C 47% 1021 hPa 7.11 mm - - -
1788603933 27.78° C 46% 1020.8 hPa 4.06 mm - - -
1788603333 28.89° C 48% 1020.8 hPa 3.05 mm - - -
1788603049 28.33° C 50% 1020.5 hPa 1.02 mm - - -
1788602733 27.78° C 51% 1020.6 hPa 1.02 mm - - -
1788602433 27.22° C 52% 1020.6 hPa 1.02 mm - - -
1788602134 26.11° C 53% 1020.4 hPa 1.02 mm - - -
1788601833 25.56° C 54% 1020.5 hPa 0.51 mm - - -
1788601233 25° C 55% 1020.8 hPa 0.51 mm - - -
1788600935 25° C 55% 1020.7 hPa 0 mm - - -
1788600635 24.44° C 54% 1020.6 hPa 0.51 mm - - -
1788600333 24.44° C 53% 1020.6 hPa 0.51 mm - - -
1788600034 24.44° C 53% 1020.8 hPa 0.51 mm - - -
1788599733 24.44° C 53% 1020.7 hPa 0.51 mm - - -
1788599434 24.44° C 52% 1020.7 hPa 0.51 mm - - -

* Rain latest hour (hover to see other rain measurements)
** Current wind speed in m/s (hover to see current wind gust speed)